Wind_Speed
24 21 20 18 16 14 14 13 12 12 12 12 10 11 10 12 15 17 14 15 15 17 14 14 14 13 13 12 12 9 9 9 6 5 9 21 12 9 8 6 13 15 10 6 11
26 27 25 23 20 18 17 16 16 15 14 15 15 14 12 11 12 14 11 15 15 16 16 15 14 15 15 10 10 9 9 7 11 13 13 16 11 19 17 20 12 5 7 5 15
27 27 26 26 25 22 21 19 18 18 18 17 18 17 16 13 11 11 13 14 14 15 17 16 14 18 18 13 12 10 10 11 10 27 22 27 28 9 15 10 3 6 8 13 20
30 28 27 26 24 24 23 22 20 19 20 20 19 19 18 15 8 8 12 12 13 14 15 15 14 18 17 16 12 11 8 16 22 20 17 16 7 7 3 6 5 4 16 18 18
31 30 28 27 26 24 22 22 21 20 20 21 22 19 20 18 8 13 10 8 8 12 12 14 14 16 11 10 5 11 13 16 14 18 11 7 6 3 7 7 10 19 13 18 20
30 30 29 29 28 26 23 22 22 21 21 22 22 20 19 18 14 18 16 13 9 9 12 13 12 12 9 8 11 13 16 13 9 14 3 5 7 8 2 6 16 11 9 15 19
28 28 28 30 28 26 24 23 22 21 22 22 21 21 20 10 15 19 14 15 10 9 10 9 14 12 8 13 9 14 16 11 10 10 4 5 7 7 2 3 15 9 7 11 17
27 26 27 28 26 26 24 23 22 21 21 20 21 22 20 15 21 19 12 9 11 13 12 16 11 9 10 12 16 15 15 10 3 6 10 13 7 7 7 10 13 13 13 13 15
26 25 25 26 24 25 23 22 21 19 20 19 20 19 17 21 23 12 12 6 10 14 17 17 11 8 11 16 17 15 12 10 11 15 19 6 5 1 9 16 15 14 11 12 11
24 25 24 24 22 22 21 19 18 21 19 18 18 14 11 14 21 18 14 11 13 10 13 17 12 15 16 17 21 12 9 11 17 9 8 4 3 7 13 19 17 16 16 16 13
24 24 23 22 21 20 18 19 18 21 20 17 12 13 13 19 21 18 19 16 19 16 13 12 17 23 17 16 15 13 16 17 13 4 8 7 15 20 22 19 16 17 17 14 12
23 23 23 21 21 18 18 20 19 18 17 18 15 16 17 20 21 20 19 19 23 20 14 15 19 9 9 11 13 15 19 13 8 9 11 19 26 22 14 12 7 10 13 14 15
24 23 22 21 21 19 20 20 15 14 17 12 12 11 14 14 15 20 20 19 21 21 19 18 10 6 11 13 16 5 3 8 7 11 16 16 21 15 13 8 7 10 10 13 15
24 23 22 21 21 21 20 18 14 10 7 10 12 13 17 15 9 16 22 17 20 22 19 19 11 13 14 21 15 10 7 9 2 8 8 12 10 9 10 8 11 10 13 12 11
26 24 24 22 22 20 19 15 14 10 1 7 12 9 11 13 12 13 12 12 15 15 16 19 10 12 15 9 8 7 7 12 5 7 5 14 8 12 9 9 7 8 8 14 14
28 27 25 23 21 18 17 16 14 7 6 11 12 14 16 15 17 13 13 10 10 11 14 19 14 16 10 11 6 4 5 10 17 13 1 7 8 19 15 10 7 17 14 11 13
30 28 26 23 22 18 16 17 11 7 10 13 14 13 19 22 18 17 19 18 15 12 16 14 16 12 13 11 12 9 7 2 4 3 3 5 1 7 15 12 6 5 9 11 13
32 29 27 24 23 21 18 21 9 8 15 7 12 13 23 22 16 18 15 23 20 15 10 10 16 16 13 10 3 8 9 8 5 5 4 1 6 5 7 6 5 6 9 11 12
33 30 27 28 23 24 22 26 11 6 16 12 13 24 25 20 13 13 15 21 7 17 7 2 5 4 12 8 7 3 3 3 4 11 8 4 5 5 5 5 4 6 9 9 13
33 31 28 28 24 25 26 24 14 2 4 22 24 20 26 22 18 17 15 10 16 8 14 3 6 8 3 4 4 3 1 1 1 4 3 2 5 7 14 9 7 7 10 11 11
32 31 31 29 28 27 31 33 25 4 6 22 16 23 20 21 21 16 14 11 17 9 11 7 6 5 4 6 3 0 3 3 2 4 5 5 3 5 7 6 9 10 11 12 12
34 31 33 31 30 31 32 32 20 9 11 17 17 20 21 25 18 22 17 13 11 10 6 8 6 4 11 12 4 1 4 5 4 2 2 5 2 5 5 6 9 9 11 11 13
35 32 31 34 32 32 31 29 18 16 13 12 15 14 19 30 16 20 15 14 11 7 10 12 8 11 11 10 9 9 4 3 2 1 3 5 5 8 5 3 7 8 10 12 14
35 26 34 38 35 34 28 26 19 16 15 13 16 14 16 31 20 18 20 15 11 11 12 10 7 8 9 6 7 7 3 5 3 2 6 3 17 15 9 4 7 8 10 12 16
38 26 35 39 39 34 26 28 25 17 14 15 17 14 18 22 20 20 17 16 15 16 13 12 16 16 13 7 4 5 5 4 2 1 3 12 8 8 1 5 6 10 10 16 18
36 21 31 11 33 29 27 30 27 18 16 19 18 17 15 21 19 17 13 11 17 15 15 12 13 11 9 3 1 3 2 3 4 5 8 12 13 4 3 3 7 11 10 18 20
32 26 31 23 37 33 34 27 28 20 18 21 22 18 14 14 12 8 7 15 16 16 16 16 18 14 10 11 9 6 2 4 1 4 4 15 6 8 4 3 7 12 13 16 18
Wind_Direction
248 247 253 252 253 256 261 260 263 268 272 274 272 269 265 264 254 249 244 243 245 254 254 245 246 243 239 226 254 262 272 297 308 265 359 344 290 287 279 298 277 222 236 287 346
244 248 248 253 253 255 259 264 266 264 264 269 270 273 275 270 269 260 235 241 242 245 250 248 238 232 231 222 236 235 263 300 321 302 290 322 340 318 289 272 261 183 49 29 341
245 246 248 249 252 254 257 259 263 269 269 265 266 266 268 276 277 265 242 234 234 238 240 243 228 229 222 208 218 255 266 305 326 313 290 293 298 297 263 238 152 99 339 334 335
245 246 247 249 249 249 253 256 256 260 265 268 265 264 260 263 271 271 246 235 238 237 233 239 229 226 226 215 199 264 260 308 318 337 294 267 294 265 272 115 90 20 334 333 328
246 245 246 248 249 248 249 253 255 258 262 264 266 261 257 252 267 252 235 220 236 232 223 227 225 207 208 226 243 277 291 309 313 315 9 178 192 207 120 156 324 323 352 332 331
248 246 244 247 249 250 251 253 256 259 264 265 263 262 253 247 233 247 244 249 239 223 213 219 207 198 215 212 265 308 296 289 304 311 71 162 96 15 31 307 340 323 329 321 310
248 245 244 245 246 249 249 250 253 256 261 263 263 259 251 227 227 238 257 239 208 197 210 210 176 202 241 267 282 285 278 261 267 309 284 281 15 7 326 278 315 286 291 287 300
246 245 243 243 243 246 246 247 249 252 255 257 259 257 251 220 218 224 221 218 208 188 188 155 187 242 287 298 286 273 270 287 291 288 290 281 53 74 334 278 275 257 276 289 289
242 242 241 241 240 241 241 242 243 246 247 252 256 259 252 221 214 222 224 220 203 189 170 173 203 235 270 267 267 257 270 279 274 306 265 247 307 282 243 262 241 252 253 269 277
237 240 238 238 236 236 235 236 235 239 239 247 253 251 236 207 209 217 226 215 207 164 184 195 218 240 240 239 244 241 239 300 308 272 209 308 277 176 206 217 227 250 261 277 240
230 233 234 232 232 230 227 229 230 236 234 238 236 204 193 192 201 207 206 203 190 190 195 204 221 232 229 236 244 264 276 289 316 233 220 169 145 160 178 204 233 242 258 255 259
223 227 229 224 227 220 218 223 227 234 240 232 236 213 207 203 205 200 201 202 198 199 198 216 233 205 231 235 261 279 273 282 78 186 177 164 134 146 167 194 232 263 281 297 297
216 220 222 217 220 212 216 222 221 239 251 231 223 218 219 213 217 209 199 200 203 199 206 215 151 233 264 277 280 264 262 330 350 178 161 181 114 145 153 171 211 231 264 293 298
210 213 215 212 215 209 216 216 209 223 237 214 219 203 213 216 214 188 194 189 200 205 203 228 209 258 281 279 265 258 278 295 268 187 178 208 128 164 177 222 239 270 294 300 305
203 208 209 208 212 207 213 209 206 178 238 183 186 186 184 178 156 175 158 179 198 187 204 225 247 271 288 232 232 273 327 259 273 246 208 213 120 172 210 233 265 298 294 321 307
199 204 204 205 208 202 211 204 191 172 245 169 192 190 172 157 147 165 176 191 176 213 229 253 263 271 295 217 229 284 271 275 275 268 76 187 219 175 201 228 239 305 284 301 314
199 200 200 199 203 194 203 190 176 209 169 186 187 181 172 161 162 169 173 186 199 220 241 256 255 250 256 260 279 243 267 314 318 40 119 143 91 152 211 224 278 275 299 314 321
197 197 196 192 199 190 195 181 205 188 163 184 193 178 169 164 176 179 203 198 206 216 272 294 280 249 224 254 209 228 264 225 227 171 165 72 97 179 225 253 266 295 317 314 312
195 195 190 196 192 194 191 189 198 142 195 175 164 151 165 164 176 185 179 178 188 218 223 341 72 168 186 207 271 209 325 335 195 100 95 95 117 152 200 199 260 302 299 308 330
193 192 186 195 192 196 194 195 184 148 231 181 161 164 165 176 179 192 191 216 212 173 197 93 129 120 90 131 194 241 348 76 51 134 105 163 192 231 203 214 252 298 315 315 334
189 189 189 190 194 199 202 205 196 190 157 175 184 169 173 164 177 185 176 154 179 192 180 168 135 130 171 85 103 57 62 36 59 47 143 166 217 214 208 261 289 304 312 334 347
187 185 189 191 193 204 206 206 201 198 168 177 180 182 180 185 176 190 170 188 201 222 225 196 132 144 113 100 84 128 65 345 46 6 109 139 167 171 252 285 303 304 316 336 358
182 183 187 193 197 204 209 205 213 193 186 159 168 186 185 184 178 192 192 186 172 208 172 164 145 131 132 117 77 65 29 338 342 232 53 144 172 182 252 283 316 325 342 359 359
174 181 191 195 197 202 207 203 207 194 194 161 157 143 175 181 190 167 174 163 165 184 168 159 139 152 139 115 125 102 354 343 355 224 135 105 162 186 214 284 344 352 359 5 7
178 183 197 198 195 200 199 198 203 192 194 181 168 155 166 143 151 153 162 160 170 175 172 133 120 126 120 121 108 81 27 352 338 142 241 164 164 167 219 335 351 352 9 5 4
175 178 192 198 199 197 194 199 194 186 187 189 182 171 160 171 191 156 188 197 176 175 187 165 135 154 116 154 182 141 61 42 76 105 127 140 139 129 212 291 337 353 3 1 357
173 179 186 187 186 191 195 191 186 176 180 184 185 174 164 174 187 173 174 180 182 179 179 170 160 152 135 157 147 119 227 222 246 136 158 161 198 208 241 255 346 357 354 346 338
Height
3154 3155 3158 3159 3160 3161 3162 3163 3164 3163 3164 3163 3163 3164 3164 3165 3165 3165 3168 3170 3170 3171 3173 3174 3175 3176 3177 3180 3181 3181 3181 3180 3181 3180 3183 3183 3180 3179 3178 3179 3179 3179 3181 3176 3178
3148 3151 3153 3155 3156 3158 3159 3160 3160 3161 3161 3161 3161 3161 3162 3162 3162 3163 3165 3165 3167 3168 3169 3170 3172 3172 3174 3177 3179 3179 3179 3178 3179 3180 3181 3177 3180 3180 3179 3175 3176 3177 3178 3175 3174
3143 3145 3148 3150 3152 3153 3155 3156 3157 3157 3157 3158 3158 3158 3159 3160 3160 3160 3160 3162 3163 3164 3165 3167 3168 3169 3170 3173 3176 3177 3177 3177 3176 3176 3173 3171 3172 3174 3175 3174 3174 3175 3173 3172 3170
3137 3140 3142 3145 3147 3149 3150 3152 3152 3154 3154 3154 3154 3154 3156 3157 3159 3157 3158 3159 3159 3161 3162 3164 3166 3166 3169 3170 3173 3174 3175 3176 3175 3173 3171 3168 3174 3171 3173 3175 3172 3171 3169 3167 3166
3132 3135 3137 3140 3142 3144 3145 3147 3148 3149 3150 3150 3149 3150 3152 3154 3156 3155 3156 3157 3157 3158 3159 3161 3163 3165 3166 3168 3170 3171 3172 3173 3174 3171 3168 3167 3170 3173 3169 3172 3171 3167 3165 3165 3164
3127 3129 3131 3135 3137 3139 3141 3142 3143 3143 3144 3146 3146 3146 3148 3151 3152 3151 3152 3154 3154 3155 3157 3158 3162 3164 3165 3166 3167 3168 3169 3170 3172 3169 3169 3166 3169 3171 3170 3170 3169 3166 3163 3163 3163
3121 3124 3126 3129 3132 3134 3136 3137 3138 3139 3140 3141 3141 3142 3143 3148 3147 3148 3150 3151 3151 3153 3156 3158 3162 3163 3164 3163 3164 3164 3165 3167 3169 3167 3165 3165 3165 3162 3162 3164 3167 3166 3163 3161 3161
3115 3118 3121 3124 3126 3129 3132 3132 3133 3134 3136 3137 3137 3137 3137 3141 3142 3144 3148 3150 3150 3150 3154 3157 3160 3161 3161 3161 3161 3162 3163 3164 3166 3167 3166 3164 3165 3161 3160 3160 3159 3160 3161 3159 3159
3110 3113 3116 3118 3121 3125 3127 3128 3129 3130 3132 3133 3133 3134 3135 3136 3140 3143 3145 3148 3149 3150 3153 3155 3157 3158 3160 3160 3160 3161 3162 3163 3164 3163 3161 3162 3163 3163 3161 3159 3158 3159 3158 3158 3158
3105 3108 3111 3114 3117 3121 3122 3124 3124 3126 3128 3129 3129 3132 3132 3133 3137 3140 3142 3145 3148 3149 3151 3153 3155 3155 3156 3157 3156 3158 3161 3162 3161 3159 3160 3159 3159 3160 3159 3158 3158 3158 3157 3157 3157
3099 3103 3106 3110 3114 3116 3118 3120 3123 3124 3124 3126 3125 3126 3127 3127 3131 3137 3140 3142 3145 3146 3149 3152 3153 3150 3152 3154 3157 3159 3160 3161 3160 3157 3157 3159 3157 3157 3159 3158 3159 3157 3157 3157 3157
3094 3098 3102 3105 3110 3111 3113 3114 3116 3120 3121 3119 3122 3122 3125 3126 3130 3133 3137 3140 3141 3143 3147 3151 3147 3148 3153 3155 3156 3157 3158 3160 3157 3156 3156 3159 3158 3160 3161 3161 3160 3160 3159 3160 3159
3089 3093 3098 3101 3105 3108 3109 3111 3115 3117 3118 3117 3119 3121 3125 3127 3127 3130 3133 3136 3139 3142 3145 3147 3146 3149 3151 3152 3155 3154 3155 3155 3155 3156 3158 3154 3161 3164 3164 3164 3163 3162 3161 3161 3160
3083 3089 3094 3097 3103 3103 3106 3109 3112 3114 3116 3115 3115 3119 3121 3124 3124 3125 3130 3136 3137 3141 3144 3145 3145 3147 3149 3148 3152 3151 3153 3153 3153 3154 3155 3154 3163 3165 3165 3164 3161 3161 3161 3162 3161
3078 3084 3089 3094 3097 3101 3106 3109 3111 3113 3114 3113 3113 3115 3118 3123 3125 3127 3131 3133 3136 3139 3144 3142 3145 3147 3147 3146 3147 3150 3149 3150 3150 3151 3151 3151 3155 3162 3163 3161 3162 3162 3161 3159 3158
3073 3079 3084 3089 3094 3100 3104 3107 3110 3114 3108 3108 3111 3112 3116 3120 3123 3127 3130 3133 3137 3139 3141 3140 3142 3145 3144 3143 3145 3146 3147 3146 3146 3146 3148 3150 3150 3160 3159 3159 3160 3159 3159 3158 3156
3068 3074 3080 3085 3092 3096 3101 3104 3110 3106 3105 3106 3108 3110 3114 3118 3121 3125 3128 3131 3134 3138 3138 3139 3138 3141 3143 3143 3143 3144 3145 3146 3144 3143 3152 3151 3152 3154 3155 3155 3157 3156 3157 3155 3154
3062 3069 3076 3083 3087 3092 3098 3102 3103 3100 3102 3103 3106 3108 3112 3117 3121 3124 3127 3129 3133 3136 3137 3137 3137 3137 3140 3141 3141 3141 3143 3144 3146 3147 3149 3150 3153 3154 3155 3156 3156 3156 3155 3154 3153
3058 3065 3072 3079 3082 3088 3094 3096 3095 3097 3101 3102 3106 3107 3112 3117 3121 3123 3125 3128 3132 3133 3137 3136 3135 3134 3138 3140 3142 3141 3141 3141 3141 3143 3148 3154 3156 3156 3155 3156 3156 3156 3155 3154 3153
3053 3061 3068 3073 3079 3085 3089 3089 3092 3095 3097 3101 3102 3106 3109 3114 3119 3122 3125 3127 3130 3131 3134 3136 3136 3138 3139 3140 3140 3139 3140 3140 3139 3143 3154 3154 3153 3153 3153 3155 3155 3155 3153 3153 3150
3050 3057 3063 3068 3075 3079 3082 3084 3089 3092 3095 3099 3101 3104 3108 3112 3116 3121 3124 3126 3128 3130 3132 3134 3137 3139 3139 3139 3138 3139 3138 3139 3140 3141 3145 3151 3151 3151 3153 3153 3154 3153 3151 3149 3147
3045 3052 3058 3064 3070 3073 3078 3081 3087 3091 3093 3096 3100 3103 3106 3110 3114 3117 3120 3123 3127 3129 3131 3133 3136 3137 3140 3139 3139 3138 3139 3139 3140 3143 3142 3143 3150 3149 3151 3152 3152 3150 3148 3147 3145
3041 3047 3053 3058 3062 3068 3075 3080 3084 3087 3092 3095 3097 3100 3102 3107 3111 3114 3119 3122 3125 3127 3130 3132 3135 3136 3139 3140 3139 3139 3140 3140 3140 3140 3141 3143 3149 3148 3150 3151 3150 3149 3146 3145 3144
3036 3043 3047 3051 3058 3066 3072 3078 3082 3085 3089 3092 3096 3099 3100 3103 3109 3112 3118 3122 3124 3126 3129 3131 3132 3133 3136 3138 3139 3140 3139 3139 3139 3139 3140 3141 3143 3147 3150 3150 3150 3148 3146 3145 3143
3029 3036 3041 3045 3052 3060 3069 3075 3080 3084 3087 3091 3095 3098 3099 3101 3107 3111 3116 3120 3123 3126 3128 3131 3132 3134 3137 3138 3139 3139 3138 3139 3139 3139 3139 3142 3143 3146 3148 3149 3148 3147 3146 3144 3142
3026 3034 3039 3044 3055 3061 3068 3072 3078 3083 3087 3089 3093 3096 3099 3102 3106 3109 3114 3118 3121 3125 3128 3130 3134 3135 3138 3138 3138 3140 3140 3139 3140 3140 3140 3142 3145 3147 3148 3148 3148 3147 3145 3141 3139
3025 3030 3036 3044 3049 3056 3062 3070 3077 3082 3085 3088 3091 3095 3099 3103 3107 3111 3114 3117 3121 3125 3127 3130 3132 3135 3138 3139 3139 3142 3141 3141 3141 3142 3142 3143 3145 3145 3147 3147 3145 3144 3143 3142 3141